Home   Weather   41°17'N, 81°25'W   Past weeks
Flag for USA

Past Weather in 41°17'N, 81°25'W, USA — Yesterday and Last 2 Weeks

Now
56 °F

Overcast.


Feels Like: 53 °F
Forecast: 54 / 30 °F
Wind: 13 mph from West

Location: Akron Fulton International Airport

Current Time: Mar 24, 2019 at 3:57:11 pm

Latest Report: Mar 24, 2019 at 2:54 pm


Visibility: 10 mi

Pressure: 30.11 "Hg

Humidity: 28%

Dew Point: 23 °F

Location of 41°17'N, 81°25'WLocation

Past Weather in 41°17'N, 81°25'W — Graph

°F

41°17'N, 81°25'W Temperature Yesterday

Maximum temperature yesterday: 48 °F (at 5:54 pm)
Minimum temperature yesterday: 28 °F (at 6:54 am)
Average temperature yesterday: 35 °F

High & Low Weather Summary for the Past Weeks

 TemperatureHumidityPressure
High76 °F (Mar 14, 4:54 pm)89% (Mar 22, 9:54 am)30.45 "Hg (Mar 22, 9:54 am)
Low23 °F (Mar 17, 7:54 am)27% (Mar 23, 5:54 pm)29.57 "Hg (Mar 14, 6:54 pm)
Average40 °F65%30.08 "Hg
* Reported Mar 10 6:54 am — Mar 24 2:54 pm, 41°17'N, 81°25'W. Weather by CustomWeather, © 2019

Note: Actual official high and low records may vary slightly from our data, if they occured in-between our weather recording intervals... More about our weather records

Advertising

41°17'N, 81°25'W Weather History for the Previous 24 Hours

Scroll right to see more
 ConditionsComfort  
Time TempWeatherWind HumidityBarometerVisibility
2:54 pm
Sun, Mar 24
56 °FOvercast.13 mph28%30.11 "Hg10 mi
1:54 pm56 °FOvercast.9 mph28%30.14 "Hg10 mi
12:54 pm53 °FOvercast.9 mph30%30.17 "Hg10 mi
11:54 am49 °FOvercast.10 mph35%30.19 "Hg10 mi
10:54 am45 °FOvercast.12 mph37%30.20 "Hg10 mi
9:54 am41 °FBroken clouds.N/A51%30.22 "Hg10 mi
8:54 am37 °FSunny.3 mph60%30.23 "Hg10 mi
7:54 am30 °FSunny.No wind79%30.24 "Hg10 mi
6:54 am29 °FClear.No wind79%30.23 "Hg10 mi
5:54 am27 °FClear.No wind78%30.24 "Hg10 mi
4:54 am27 °FClear.No wind78%30.24 "Hg10 mi
3:54 am26 °FClear.No wind77%30.24 "Hg10 mi
2:54 am27 °FClear.No wind78%30.24 "Hg10 mi
1:54 am28 °FClear.No wind72%30.25 "Hg10 mi
12:54 am29 °FClear.No wind79%30.27 "Hg10 mi
11:54 pm
Sat, Mar 23
30 °FClear.No wind69%30.27 "Hg10 mi
10:54 pm30 °FClear.No wind66%30.28 "Hg10 mi
9:54 pm33 °FClear.No wind63%30.29 "Hg10 mi
8:54 pm38 °FClear.No wind46%30.29 "Hg10 mi
7:54 pm40 °FClear.6 mph40%30.29 "Hg10 mi
6:54 pm47 °FSunny.9 mph30%30.27 "Hg10 mi
5:54 pm48 °FSunny.8 mph27%30.27 "Hg10 mi
4:54 pm47 °FSunny.13 mph30%30.28 "Hg10 mi
3:54 pm46 °FSunny.9 mph31%30.28 "Hg10 mi
Weather by CustomWeather, © 2019

See weather overview